TimeMST,TemperatureF,Dew PointF,Humidity,Sea Level PressureIn,VisibilityMPH,Wind Direction,Wind SpeedMPH,Gust SpeedMPH,PrecipitationIn,Events,Conditions,WindDirDegrees,DateUTC
12:53 AM,48.9,26.1,41,30.05,10.0,WSW,5.8,-,N/A,,Mostly Cloudy,250,2012-11-11 07:53:00
1:53 AM,46.9,25.0,42,30.07,10.0,Calm,Calm,-,N/A,,Clear,0,2012-11-11 08:53:00
2:53 AM,44.1,25.0,47,30.08,10.0,West,3.5,-,N/A,,Clear,260,2012-11-11 09:53:00
3:53 AM,43.0,25.0,49,30.10,-9999.0,Calm,Calm,-,N/A,,Clear,0,2012-11-11 10:53:00
4:53 AM,42.1,25.0,51,30.12,10.0,Calm,Calm,-,N/A,,Clear,0,2012-11-11 11:53:00
5:53 AM,39.0,24.1,55,30.15,10.0,Calm,Calm,-,N/A,,Clear,0,2012-11-11 12:53:00
6:53 AM,37.0,24.1,59,30.17,10.0,SSE,5.8,-,N/A,,Clear,160,2012-11-11 13:53:00
7:53 AM,41.0,26.1,55,30.20,10.0,East,4.6,-,N/A,,Clear,90,2012-11-11 14:53:00
8:53 AM,45.0,26.1,48,30.22,10.0,Calm,Calm,-,N/A,,Clear,0,2012-11-11 15:53:00
9:53 AM,51.1,24.1,35,30.23,10.0,Calm,Calm,-,N/A,,Clear,0,2012-11-11 16:53:00
10:53 AM,52.0,19.9,28,30.24,10.0,NNW,8.1,-,N/A,,Clear,330,2012-11-11 17:53:00
11:53 AM,55.0,18.0,23,30.22,10.0,Variable,5.8,-,N/A,,Clear,0,2012-11-11 18:53:00
12:53 PM,55.9,17.1,22,30.19,10.0,Variable,3.5,-,N/A,,Clear,0,2012-11-11 19:53:00
1:53 PM,57.9,14.0,18,30.17,10.0,North,8.1,-,N/A,,Clear,360,2012-11-11 20:53:00
2:53 PM,57.9,14.0,18,30.17,10.0,NNW,10.4,-,N/A,,Clear,330,2012-11-11 21:53:00
3:53 PM,57.0,12.9,18,30.18,10.0,NNW,5.8,-,N/A,,Clear,330,2012-11-11 22:53:00
4:53 PM,55.9,14.0,19,30.19,10.0,NW,11.5,-,N/A,,Clear,320,2012-11-11 23:53:00
5:53 PM,53.6,12.2,19,30.23,10.0,NNW,9.2,-,N/A,,Clear,330,2012-11-12 00:53:00
6:53 PM,52.0,12.0,20,30.24,10.0,NW,8.1,-,N/A,,Clear,320,2012-11-12 01:53:00
7:53 PM,50.0,15.1,25,30.25,10.0,NNW,9.2,-,N/A,,Clear,330,2012-11-12 02:53:00
8:53 PM,45.0,14.0,29,30.28,10.0,West,5.8,-,N/A,,Clear,270,2012-11-12 03:53:00
9:53 PM,45.0,15.1,30,30.27,10.0,Calm,Calm,-,N/A,,Clear,0,2012-11-12 04:53:00
10:53 PM,44.1,15.1,31,30.27,10.0,Calm,Calm,-,N/A,,Clear,0,2012-11-12 05:53:00
11:53 PM,39.9,15.1,36,30.26,10.0,South,4.6,-,N/A,,Clear,190,2012-11-12 06:53:00